Flag for U.S.A. Weather past 2 weeks in Paramus, New Jersey, U.S.A.

Now
60 °F

Overcast.


Feels Like: 60 °F
Forecast: 41 / 62 °F
Wind: 9 mph from North

Location: Teterboro Airport

Current Time: Apr 26, 2015 at 4:36:34 PM

Latest Report: Apr 26, 2015 at 3:51 PM


Visibility: 10 mi

Pressure: 29.64 "Hg

Humidity: 28%

Dew point: 27 °F

Location of ParamusLocation

Historic Weather in Paramus — Graph

°F

Paramus temperature yesterday

Maximum temperature yesterday: 59 °F (at 3:51 PM)
Minimum temperature yesterday: 36 °F (at 2:51 AM)
Average temperature yesterday: 48 °F

Past Weeks' High & Low Weather Summary

 TemperatureHumidityPressure
High80 °F (Apr 18, 4:51 PM)97% (Apr 20, 8:51 PM)30.48 "Hg (Apr 20, 8:51 PM)
Low35 °F (Apr 12, 5:51 AM)12% (Apr 15, 3:51 PM)29.50 "Hg (Apr 22, 2:51 PM)
Average55 °F49%29.98 "Hg
* Reported Apr 11 2:51 PM — Apr 26 2:51 PM, Paramus, Weather by CustomWeather, © 2015

Note: Actual official high and low records may vary slightly from our data, if they occured in-between our weather recording intervals... More about our weather records

Advertising

Paramus weather history for previous 24 hours

 ConditionsComfort  
Time TempWeatherWind HumidityBarometerVisibility
2:51 PM
Sun, Apr 26
60 °FPartly sunny.5 mph31%29.65 "Hg10 mi
1:51 PM59 °FOvercast.No wind29%29.66 "Hg10 mi
12:51 PM58 °FOvercast.7 mph35%29.67 "Hg10 mi
11:51 AM56 °FPartly sunny.6 mph33%29.69 "Hg10 mi
10:51 AM56 °FSunny.6 mph37%29.70 "Hg10 mi
9:51 AM54 °FSunny.6 mph38%29.70 "Hg10 mi
8:51 AM52 °FSunny.6 mph43%29.70 "Hg10 mi
7:51 AM48 °FSunny.5 mph52%29.70 "Hg10 mi
6:51 AM44 °FClear.6 mph58%29.69 "Hg10 mi
5:51 AM43 °FClear.5 mph58%29.69 "Hg10 mi
4:51 AM44 °FClear.5 mph53%29.67 "Hg10 mi
3:51 AM46 °FClear.3 mph48%29.67 "Hg10 mi
2:51 AM47 °FClear.6 mph46%29.67 "Hg10 mi
1:51 AM48 °FClear.6 mph44%29.67 "Hg10 mi
12:51 AM50 °FClear.3 mph39%29.69 "Hg10 mi
11:51 PM
Sat, Apr 25
51 °FClear.7 mph38%29.69 "Hg10 mi
10:51 PM52 °FClear.9 mph35%29.69 "Hg10 mi
9:51 PM54 °FClear.No wind30%29.69 "Hg10 mi
8:51 PM56 °FClear.6 mph26%29.69 "Hg10 mi
7:51 PM57 °FSunny.8 mph25%29.69 "Hg10 mi
6:51 PM59 °FSunny.7 mph22%29.67 "Hg10 mi
5:51 PM59 °FSunny.10 mph27%29.68 "Hg10 mi
4:51 PM59 °FSunny.6 mph25%29.68 "Hg10 mi
Weather by CustomWeather, © 2015

See weather overviewHow to use our weather pages